Back to catalog

STARLINK-31521

AliveCommunicationsVLEO
NORAD 59015·PAYLOAD·🇺🇸 United States

Launched Feb 23, 2024 from Vandenberg Space Force Base

Loading…

Next Passes (next 24 hours)

TLE

FreshSource: CelesTrak SupGP

Epoch: Sep 14, 2026, 21:08 UTC

1 59015C 24036T   26257.88104167  .00038625  00000+0  12423-2 0  2576
2 59015  53.1563 279.1712 0001048  86.1069 208.1831 15.31675603    18

Track STARLINK-31521 in real time with AllMySat

Download on the App Store